Temperature
18 18 18 18 17 17 19 19 19 19 20 20 20 20 19 19 19 19 18 18 18 18 18 18 18 18 18 18 18 18 18 18 18 18 18 18 18 18 18 18 18 18 18 18 18 18 18 18 18
18 18 18 18 17 18 19 19 19 20 20 20 20 19 19 18 18 18 18 18 18 18 18 18 18 18 18 18 18 18 18 18 18 18 18 18 18 18 18 18 18 18 18 18 18 18 18 18 18
18 18 18 17 18 19 20 20 19 20 20 20 20 19 19 18 18 18 18 18 18 18 18 18 18 18 18 18 18 17 17 17 17 17 17 17 17 17 17 17 17 17 17 18 18 18 18 18 18
18 18 18 17 19 19 19 20 19 20 21 20 20 18 18 18 19 19 18 18 18 18 18 18 18 18 17 17 17 17 17 17 17 17 17 17 17 17 17 17 17 17 17 17 17 17 17 18 18
18 18 18 18 19 19 19 19 20 20 20 20 19 18 18 19 19 19 18 18 18 18 18 18 18 17 17 17 17 17 17 17 16 16 16 16 16 16 16 16 16 16 17 17 17 17 17 17 17
18 17 18 18 19 20 19 20 20 20 20 20 19 18 18 19 19 19 18 18 18 18 18 18 17 17 17 17 17 17 16 16 16 16 16 16 16 16 16 16 16 16 16 16 16 17 17 17 17
18 17 18 19 19 19 20 20 20 20 20 20 20 18 18 19 19 19 18 18 18 18 18 17 17 17 17 17 16 16 16 16 16 16 16 16 16 16 16 16 16 16 16 16 16 16 16 17 17
18 17 18 18 19 19 20 20 21 20 20 20 20 19 18 19 19 18 18 18 18 18 18 17 17 17 17 16 16 16 16 15 15 15 15 15 15 15 15 15 15 15 15 16 16 16 16 16 16
19 17 18 19 19 19 19 20 21 21 20 20 20 20 20 19 19 18 18 18 18 18 18 17 17 17 17 16 16 16 16 15 15 15 15 15 15 15 15 15 15 15 15 15 15 16 16 16 16
18 18 19 19 19 19 19 20 21 21 20 20 20 20 20 19 19 19 19 19 18 18 18 18 17 17 17 16 16 16 15 15 15 15 15 15 14 14 14 15 15 15 15 15 15 15 15 15 16
18 18 19 19 20 20 20 20 21 20 20 21 21 21 20 19 19 19 19 19 19 18 18 18 17 17 17 16 16 16 15 15 15 15 15 14 14 14 14 14 14 14 14 15 15 15 15 15 15
18 19 19 19 20 20 20 20 20 21 22 22 22 22 21 20 20 20 19 19 19 19 18 18 18 17 17 16 16 16 15 15 15 15 14 14 14 14 14 14 14 14 14 14 14 14 15 15 15
18 19 19 20 20 20 20 20 20 21 22 22 22 21 21 20 20 20 20 19 19 19 19 18 18 17 17 16 16 16 15 15 15 15 14 14 14 14 14 14 14 14 14 14 14 14 14 14 15
18 19 19 20 20 20 20 20 20 21 22 22 22 21 21 21 21 20 20 20 19 19 19 18 18 17 17 16 16 16 15 15 15 14 14 14 14 14 14 14 14 14 14 14 14 14 14 14 15
18 19 19 19 20 20 20 20 20 22 22 22 21 21 21 21 21 21 20 20 20 19 19 18 18 17 17 16 16 16 15 15 15 14 14 14 14 13 13 13 13 13 13 14 14 14 14 14 14
18 19 19 20 20 20 20 20 21 22 21 21 21 21 21 21 21 21 21 20 20 19 19 19 18 18 17 16 16 16 15 15 14 14 14 14 13 13 13 13 13 13 13 13 13 14 14 14 14
18 18 19 20 20 20 20 20 20 21 21 21 21 21 21 21 21 21 21 21 20 20 19 19 18 18 17 16 16 16 15 15 14 14 14 13 13 13 13 13 13 13 13 13 13 13 14 14 14
18 19 19 19 20 20 20 19 20 21 21 21 21 21 21 21 22 22 21 21 20 20 19 19 18 18 17 17 16 16 15 15 14 14 14 13 13 13 13 13 13 13 13 13 13 13 14 14 14
19 19 19 20 20 20 19 19 20 20 20 20 20 21 21 22 22 22 21 21 20 20 20 19 18 18 17 17 16 16 15 15 14 14 13 13 13 13 13 13 13 13 13 13 13 13 13 14 14
19 19 19 19 20 20 19 19 19 19 20 20 21 21 22 22 22 22 22 21 21 20 20 19 19 18 17 17 16 16 15 15 14 14 13 13 13 13 13 12 12 12 13 13 13 13 13 13 14
19 19 19 20 20 19 20 19 19 20 20 21 21 22 22 22 22 22 22 21 21 21 20 20 19 18 17 17 16 16 15 15 14 14 13 13 13 13 13 12 12 12 12 13 13 13 13 13 13
19 20 20 20 19 18 19 18 19 18 19 20 21 22 22 22 22 23 22 22 21 21 20 20 19 18 18 17 16 16 15 15 14 14 14 13 13 13 13 12 12 12 12 12 12 13 13 13 13
19 20 19 19 19 18 18 18 18 18 20 20 20 22 23 23 23 23 23 22 22 21 20 20 19 18 18 17 17 16 15 15 14 14 14 13 13 13 13 13 12 12 12 12 12 12 13 13 13
20 19 18 16 16 18 18 18 18 18 20 20 20 22 23 23 23 23 23 22 21 21 20 20 19 19 18 17 17 16 16 15 14 14 14 13 13 13 13 13 12 12 12 12 12 12 12 13 13
19 18 17 17 17 17 18 18 18 19 19 19 20 22 23 23 23 23 23 22 22 21 21 20 19 19 18 18 17 16 16 15 15 14 14 14 13 13 13 13 12 12 12 12 12 12 12 12 13
19 18 17 18 18 17 17 18 18 19 20 21 21 22 23 23 23 23 23 22 22 21 21 20 20 19 18 18 17 16 16 15 15 14 14 14 13 13 13 13 13 13 13 12 12 12 12 12 12
19 17 17 16 17 17 17 18 19 20 20 20 21 22 23 23 23 23 23 22 22 22 21 20 20 19 19 18 17 17 16 15 15 15 14 14 14 13 13 13 13 13 13 13 12 12 12 12 12
19 16 15 16 17 17 18 18 18 20 19 19 18 20 22 22 23 23 22 22 22 21 21 20 20 19 19 18 17 17 16 16 15 15 14 14 14 13 13 13 13 13 13 13 12 12 12 12 12
19 18 15 14 15 16 18 18 18 18 18 17 17 19 20 21 22 22 22 22 22 21 20 20 19 19 18 18 17 17 16 16 15 15 15 14 14 14 13 13 13 13 13 13 13 13 12 12 12
20 19 16 17 17 15 16 16 18 17 17 17 18 19 20 21 21 22 22 22 21 21 20 20 19 19 19 18 18 17 17 16 16 15 15 14 14 14 14 13 13 13 13 13 13 13 13 12 12
Wind_Speed
7 8 4 3 3 3 1 2 1 0 0 1 2 4 4 3 2 2 0 4 6 6 6 7 8 7 7 7 6 6 5 5 4 4 3 3 3 2 2 2 2 2 2 1 1 1 1 1 1
7 5 3 3 3 1 2 2 2 2 3 3 3 4 4 4 3 3 2 4 6 6 6 7 8 7 7 6 5 5 4 4 3 3 2 1 1 0 0 1 1 1 1 1 0 0 0 0 1
6 3 3 3 2 3 2 2 2 1 3 2 3 4 3 3 3 3 3 7 7 6 6 6 8 7 6 5 5 4 3 3 2 2 1 1 1 2 2 2 3 3 3 2 2 2 2 2 2
4 3 3 2 1 3 2 1 1 2 2 2 3 4 3 2 3 4 7 8 7 5 5 6 7 6 6 5 4 3 2 2 2 2 2 2 3 3 4 4 4 4 4 4 3 3 3 3 3
3 3 2 1 2 2 2 1 2 2 2 2 4 4 2 3 5 8 8 7 7 5 4 5 6 5 5 4 4 3 2 1 2 2 3 3 4 4 5 5 5 5 5 5 4 4 5 4 4
3 3 3 0 2 2 1 0 2 2 3 3 5 5 2 2 6 8 7 6 6 5 4 3 5 5 4 3 3 2 1 1 2 3 3 4 4 4 5 5 5 5 5 5 5 5 6 6 5
3 3 2 1 2 2 0 1 2 2 3 4 6 5 2 3 6 7 6 6 5 4 3 2 2 3 3 2 2 1 1 1 3 4 4 5 5 5 6 6 5 6 6 6 6 6 6 7 6
3 3 1 1 2 2 0 0 2 2 2 3 5 7 5 6 7 6 5 4 4 3 2 1 1 1 0 0 1 0 1 2 3 4 5 6 6 7 7 7 6 6 6 6 6 6 6 7 6
2 3 1 3 4 2 1 1 1 1 3 2 2 4 5 9 9 8 5 2 2 2 2 2 2 2 1 1 2 2 3 4 5 6 6 6 6 6 6 7 6 5 5 6 6 6 6 6 5
3 2 4 3 3 2 2 2 2 2 2 2 2 3 7 10 10 9 7 7 6 5 4 3 3 2 2 1 1 2 3 4 4 5 5 5 5 6 6 7 8 7 6 6 6 6 5 4 3
2 3 3 2 2 2 2 2 2 4 4 6 7 9 11 10 10 10 9 8 8 6 5 4 4 3 2 1 0 1 2 3 3 4 4 4 5 5 6 6 7 7 7 6 6 6 5 4 3
2 2 1 1 1 1 1 1 1 5 6 6 9 12 12 12 12 11 10 8 6 6 5 4 4 4 3 2 1 1 1 1 2 3 3 3 2 3 3 3 4 4 4 4 4 3 3 3 3
1 1 1 2 2 1 1 1 2 4 4 3 8 11 12 12 11 9 8 8 7 6 6 4 5 4 3 2 1 2 1 1 1 2 3 2 1 2 2 2 3 3 4 3 3 3 3 2 2
1 1 2 3 2 1 1 2 1 5 3 7 9 11 11 11 11 8 8 8 8 8 7 5 5 5 4 3 2 2 2 1 2 2 2 2 2 1 1 2 2 3 4 3 2 3 2 2 2
1 2 3 2 1 1 1 4 4 4 6 7 9 9 10 10 9 10 10 10 9 8 7 6 5 5 5 4 3 2 2 3 2 2 2 2 2 2 2 2 3 3 4 4 3 2 2 2 2
2 3 2 3 1 1 3 5 6 3 8 8 8 9 9 10 10 10 9 8 8 7 7 6 6 6 5 4 3 2 2 3 2 1 2 2 2 2 2 2 2 3 4 3 2 2 2 2 2
3 1 1 4 0 1 3 6 6 3 7 8 9 10 9 9 10 10 9 9 9 9 8 7 6 6 5 4 3 2 3 2 1 1 1 2 3 3 2 2 2 4 3 3 3 2 1 2 3
3 2 1 3 1 1 3 7 9 3 7 9 9 9 9 11 13 9 9 8 8 8 8 7 6 6 5 4 3 2 2 1 1 1 1 2 3 3 2 1 3 3 3 3 3 2 2 1 2
3 2 1 3 1 2 5 8 10 5 5 8 8 9 10 12 9 6 7 8 8 8 8 8 7 6 5 3 2 2 1 0 1 1 1 2 2 3 2 2 3 3 3 3 3 2 2 2 2
3 2 2 3 2 0 4 7 8 4 5 7 8 9 11 9 6 7 7 8 9 9 9 8 8 7 6 4 3 2 2 1 1 1 2 2 3 3 2 2 2 2 3 4 4 2 2 2 2
0 2 2 2 4 4 5 8 7 5 4 4 4 6 7 9 9 8 8 9 9 10 11 11 9 8 7 5 3 3 3 2 1 1 2 2 3 3 2 2 2 2 2 2 3 2 2 2 2
2 3 2 1 3 4 5 3 7 7 8 5 5 4 6 6 7 8 9 10 11 12 10 9 9 8 7 6 5 5 3 3 3 2 2 3 3 2 2 2 2 2 2 2 3 2 1 1 1
3 2 3 2 3 3 5 2 8 6 7 7 7 6 6 6 6 8 10 11 10 9 9 9 8 8 7 6 6 5 3 3 1 1 2 2 2 2 2 2 2 2 2 2 3 2 2 1 0
3 5 6 6 5 3 3 1 5 5 5 8 7 7 6 5 5 6 6 6 7 7 8 8 9 8 7 7 6 6 6 4 3 2 2 2 2 3 3 1 1 2 2 2 2 2 1 1 1
5 5 5 7 5 3 4 0 6 7 6 5 7 7 6 4 3 4 5 7 8 9 9 9 10 9 8 7 7 7 7 6 6 4 3 3 2 2 3 1 2 2 2 2 1 1 2 1 1
3 7 6 3 2 4 5 2 6 6 6 5 4 5 6 5 3 5 6 7 8 9 10 10 11 9 9 9 8 6 6 5 4 5 4 4 4 4 3 2 2 2 2 2 1 1 1 1 1
5 3 5 6 2 2 6 7 8 6 8 9 8 7 8 7 6 5 5 5 7 8 10 11 11 10 10 10 8 7 7 6 6 5 4 4 4 3 4 3 3 2 2 1 0 1 1 1 1
5 8 6 5 3 1 6 5 4 8 8 9 9 8 9 9 7 6 4 5 5 6 6 7 9 10 9 9 8 7 7 7 6 5 5 5 4 3 3 3 3 2 2 1 0 1 1 0 1
4 5 6 5 5 5 1 6 4 5 6 7 8 8 8 9 8 6 4 3 3 3 4 6 7 7 7 8 8 7 7 7 6 6 6 6 4 4 4 4 3 3 2 1 1 1 1 0 1
3 6 7 5 3 4 4 6 5 3 5 5 7 8 8 8 7 6 4 2 1 2 3 5 7 8 8 8 8 8 7 7 7 7 7 6 6 5 5 4 3 3 3 2 2 3 2 1 1
Wind_Direction
132 111 87 61 61 62 263 252 195 217 43 45 68 76 85 77 77 126 28 138 134 135 147 151 146 138 131 128 126 125 123 121 118 119 120 117 115 118 124 132 129 130 131 134 132 127 116 96 72
114 104 70 69 94 101 270 230 186 203 162 143 80 78 75 72 74 100 107 137 132 136 140 145 143 136 130 127 124 122 119 116 117 119 116 112 104 118 223 255 246 236 216 209 212 229 241 293 322
117 86 90 85 118 186 215 212 189 107 153 135 71 59 79 98 113 145 161 138 126 127 134 146 142 136 131 127 121 115 107 97 94 90 65 21 346 319 307 293 285 278 266 256 254 258 267 271 281
100 60 60 79 202 236 227 218 159 110 97 84 99 77 65 63 152 154 141 134 128 126 132 147 142 137 132 128 121 114 101 79 58 32 355 332 319 309 306 301 296 288 282 275 269 269 273 283 284
64 84 76 37 281 276 249 234 173 122 90 87 110 103 61 9 115 133 139 140 139 137 139 155 152 146 140 133 123 116 98 59 27 7 352 339 328 321 318 313 307 299 290 286 279 272 271 272 277
70 75 89 194 290 307 321 266 124 113 116 118 120 117 105 110 131 146 146 142 144 145 143 160 164 155 151 143 135 122 94 50 18 1 348 341 335 330 325 315 310 308 304 295 289 281 276 275 277
109 107 141 191 272 308 322 130 139 137 134 153 139 122 138 172 168 154 145 138 139 140 136 149 161 162 168 158 146 124 45 18 4 355 349 344 342 338 331 321 311 304 299 295 288 283 278 276 277
126 106 94 225 224 254 304 106 139 133 134 122 134 148 183 194 164 139 121 121 133 140 147 162 171 161 167 263 239 293 346 11 5 1 0 360 358 351 342 336 322 309 305 304 300 294 289 280 275
108 80 211 227 208 223 162 93 76 81 119 121 152 177 180 145 135 128 122 125 159 182 193 195 201 201 213 263 283 336 358 9 8 6 9 15 9 357 348 344 342 335 329 325 321 316 311 301 291
99 147 228 225 203 192 170 165 156 109 130 141 98 104 125 135 146 156 169 184 196 209 213 208 212 203 204 253 346 348 8 11 10 6 9 14 10 3 3 359 4 3 1 357 350 344 338 334 328
147 204 260 274 181 179 173 170 157 149 201 202 183 162 147 153 164 176 187 195 205 210 211 201 205 197 191 208 221 15 22 3 1 12 14 19 18 13 13 9 5 5 6 5 360 2 357 348 330
168 246 241 318 90 156 188 154 168 198 224 206 175 160 158 168 181 190 195 202 203 201 212 201 183 182 185 176 164 131 84 9 8 18 30 38 24 9 6 6 354 359 356 348 348 343 340 339 322
189 289 303 306 311 253 229 219 230 251 246 164 149 158 172 182 192 200 202 202 198 201 210 198 175 180 172 150 161 129 140 116 43 36 38 60 65 12 5 354 354 356 357 346 333 332 329 327 315
216 291 327 317 308 298 215 266 213 260 171 150 159 176 188 194 197 199 203 206 204 204 204 193 182 181 163 159 159 152 151 122 88 58 41 60 75 50 22 2 354 350 345 336 324 320 317 307 298
28 26 345 298 261 269 109 306 235 228 153 166 184 193 200 209 206 207 207 204 202 200 194 188 184 166 160 157 157 145 143 126 108 78 54 59 61 55 46 16 358 339 340 341 339 338 336 318 313
63 47 339 301 195 176 132 277 273 181 168 190 200 208 215 221 219 220 211 203 195 187 182 187 179 159 157 147 139 132 128 116 107 85 54 40 33 42 45 20 349 340 348 349 338 340 330 326 321
49 84 285 314 308 130 165 259 285 156 181 208 214 217 222 231 233 226 212 199 190 184 175 175 164 158 149 132 114 110 105 96 89 80 46 17 20 28 38 7 343 350 355 352 340 350 319 311 315
180 179 259 288 305 143 223 263 282 237 205 222 227 227 228 232 233 223 207 193 184 174 168 164 156 149 130 111 91 74 70 50 34 28 353 353 5 12 24 9 354 358 359 354 350 331 334 307 306
138 133 297 284 256 207 252 274 283 270 235 238 235 229 230 237 238 211 195 179 169 167 168 167 162 159 145 136 133 135 169 264 318 316 339 349 356 3 15 1 356 359 358 343 340 337 346 351 343
96 66 334 316 336 239 299 292 289 263 239 238 236 231 230 235 227 206 190 180 180 178 177 175 176 172 175 166 155 155 151 192 250 301 333 344 348 349 356 3 351 354 356 355 357 7 360 354 12
84 188 230 303 355 22 354 334 330 325 305 281 257 240 230 224 221 208 195 192 185 187 186 186 183 179 180 160 121 91 68 40 12 329 317 326 335 335 346 348 342 350 2 342 342 357 25 353 355
259 235 197 36 42 347 27 340 311 325 329 323 298 272 249 238 221 208 198 196 198 197 187 183 179 179 178 165 162 156 163 190 224 234 271 309 328 331 336 340 348 347 348 340 332 9 13 29 347
209 40 86 76 102 25 20 62 302 337 342 323 309 291 266 247 224 215 209 206 202 188 181 179 174 180 178 174 175 168 173 195 215 238 283 309 323 323 326 330 348 340 338 339 344 357 15 27 49
137 68 55 48 67 38 343 70 303 309 297 311 319 318 298 272 246 232 217 199 192 180 178 174 176 186 183 181 182 184 185 188 195 224 254 284 303 305 309 313 337 323 322 329 332 339 7 18 46
81 78 34 20 22 290 313 199 263 279 286 282 297 308 313 288 257 237 215 200 192 186 185 181 182 192 190 188 195 197 195 192 201 211 221 237 262 271 278 291 296 299 302 311 327 351 0 12 38
125 125 140 153 221 297 346 301 269 284 305 315 318 319 330 320 280 250 231 213 203 196 188 185 191 198 193 196 204 202 199 197 208 211 211 221 231 245 257 262 269 281 299 313 338 352 335 17 28
121 113 146 126 124 13 323 317 316 341 355 358 354 350 334 321 301 278 258 228 212 201 198 196 195 199 200 203 202 203 203 204 211 216 215 226 236 243 245 246 261 274 287 295 312 345 342 28 28
125 138 100 101 117 2 324 320 294 320 328 338 341 334 323 325 322 310 281 246 226 214 206 198 201 206 205 202 204 208 208 208 208 208 219 227 233 236 239 244 251 259 263 268 265 289 302 14 337
113 95 100 101 134 140 273 287 246 266 304 316 316 322 322 322 320 317 307 282 240 206 196 201 207 211 210 209 210 210 210 207 204 211 222 223 224 224 229 232 235 237 236 236 243 259 259 238 310
160 154 143 140 178 153 164 266 290 296 315 320 322 327 330 332 332 331 330 338 315 227 217 212 213 215 217 210 208 216 213 202 207 219 224 218 221 224 222 220 222 230 227 221 229 250 238 221 246
Height
1501 1503 1506 1508 1511 1516 1518 1512 1509 1509 1508 1508 1508 1508 1509 1512 1515 1520 1516 1515 1516 1518 1519 1520 1521 1522 1523 1524 1525 1525 1526 1526 1527 1527 1527 1528 1528 1528 1528 1528 1528 1528 1528 1528 1528 1528 1528 1528 1527
1502 1504 1508 1509 1514 1522 1518 1510 1509 1508 1507 1508 1509 1509 1510 1512 1513 1514 1515 1516 1517 1519 1520 1521 1522 1523 1523 1524 1525 1525 1526 1526 1526 1527 1527 1527 1527 1528 1528 1528 1528 1528 1528 1528 1528 1528 1528 1527 1527
1502 1505 1508 1510 1515 1519 1515 1508 1507 1506 1507 1508 1509 1510 1512 1513 1514 1515 1516 1517 1518 1520 1521 1522 1522 1523 1523 1524 1524 1525 1525 1525 1526 1526 1526 1526 1526 1527 1527 1526 1527 1527 1527 1526 1527 1527 1527 1527 1527
1504 1507 1509 1512 1514 1510 1508 1506 1506 1506 1507 1508 1509 1512 1513 1515 1515 1516 1517 1518 1519 1520 1521 1522 1523 1523 1524 1524 1524 1524 1525 1525 1525 1525 1525 1525 1525 1525 1525 1525 1525 1525 1525 1525 1525 1525 1526 1526 1526
1505 1507 1511 1515 1512 1507 1505 1505 1505 1506 1507 1509 1510 1512 1514 1515 1516 1517 1518 1519 1520 1521 1522 1523 1523 1524 1524 1524 1524 1524 1524 1524 1524 1524 1524 1524 1524 1523 1523 1524 1524 1524 1523 1523 1524 1524 1524 1524 1525
1505 1507 1515 1518 1512 1506 1505 1505 1505 1506 1507 1509 1510 1512 1514 1516 1517 1518 1519 1521 1522 1522 1523 1523 1524 1524 1524 1524 1524 1524 1524 1524 1524 1523 1523 1523 1523 1522 1522 1522 1522 1522 1522 1522 1522 1522 1522 1523 1523
1506 1509 1513 1514 1513 1509 1505 1505 1506 1507 1508 1509 1510 1513 1514 1516 1518 1519 1520 1522 1522 1523 1524 1524 1524 1525 1525 1525 1525 1524 1524 1524 1523 1523 1523 1522 1522 1521 1521 1520 1520 1520 1520 1520 1520 1520 1520 1520 1521
1505 1509 1512 1513 1512 1509 1505 1505 1506 1507 1508 1510 1511 1512 1513 1516 1517 1519 1521 1522 1523 1524 1524 1524 1525 1525 1525 1525 1525 1524 1524 1524 1523 1523 1522 1522 1521 1520 1520 1519 1519 1519 1518 1518 1518 1518 1518 1518 1518
1505 1511 1515 1511 1509 1507 1505 1505 1506 1507 1508 1509 1510 1511 1512 1515 1517 1519 1521 1522 1523 1524 1524 1525 1525 1525 1525 1525 1525 1525 1524 1524 1523 1523 1522 1521 1521 1520 1519 1519 1518 1517 1517 1517 1516 1516 1515 1516 1516
1505 1511 1509 1504 1504 1504 1504 1505 1506 1507 1508 1509 1510 1511 1512 1514 1516 1518 1520 1521 1523 1523 1524 1524 1525 1525 1525 1525 1525 1525 1524 1524 1523 1523 1522 1521 1520 1520 1519 1518 1517 1516 1516 1515 1515 1514 1514 1514 1514
1504 1507 1504 1503 1502 1504 1504 1505 1505 1507 1508 1507 1508 1510 1512 1514 1516 1518 1519 1521 1522 1523 1524 1524 1525 1525 1525 1525 1525 1525 1524 1524 1523 1522 1522 1521 1520 1519 1518 1517 1516 1516 1515 1514 1514 1513 1512 1512 1512
1505 1504 1504 1503 1503 1504 1504 1504 1505 1505 1505 1506 1507 1509 1511 1513 1515 1517 1518 1520 1522 1523 1523 1524 1524 1525 1525 1525 1525 1524 1524 1524 1523 1522 1521 1520 1519 1518 1518 1516 1515 1514 1514 1513 1512 1511 1511 1510 1510
1505 1504 1503 1503 1503 1504 1504 1505 1505 1504 1504 1505 1507 1509 1510 1512 1514 1516 1518 1520 1521 1522 1523 1524 1524 1524 1524 1524 1524 1524 1523 1523 1522 1522 1521 1520 1519 1518 1517 1515 1514 1513 1512 1511 1511 1510 1509 1509 1508
1505 1504 1503 1503 1503 1503 1504 1504 1505 1502 1503 1505 1506 1508 1510 1512 1514 1516 1517 1518 1520 1521 1522 1523 1524 1524 1524 1524 1523 1523 1523 1522 1522 1521 1520 1519 1518 1517 1516 1514 1513 1512 1511 1510 1509 1508 1507 1507 1507
1504 1505 1505 1504 1503 1504 1505 1506 1503 1501 1503 1504 1506 1507 1509 1511 1513 1514 1515 1517 1519 1520 1521 1522 1523 1523 1523 1523 1523 1523 1522 1522 1521 1520 1519 1518 1517 1516 1515 1513 1512 1510 1509 1508 1507 1506 1506 1505 1505
1506 1509 1512 1505 1503 1504 1508 1511 1500 1501 1502 1503 1505 1506 1508 1509 1511 1513 1514 1516 1518 1519 1520 1521 1522 1522 1522 1522 1522 1522 1522 1521 1520 1519 1518 1518 1516 1515 1514 1512 1511 1509 1508 1506 1505 1504 1504 1504 1503
1512 1516 1514 1509 1503 1504 1507 1509 1500 1500 1501 1502 1503 1504 1506 1507 1509 1510 1512 1514 1516 1518 1519 1520 1521 1522 1522 1522 1522 1521 1521 1520 1520 1519 1518 1517 1516 1515 1513 1512 1510 1508 1507 1505 1504 1503 1502 1502 1502
1517 1516 1514 1512 1505 1506 1508 1506 1499 1499 1500 1500 1501 1502 1503 1504 1505 1508 1510 1513 1515 1517 1518 1519 1520 1521 1521 1521 1521 1521 1520 1520 1519 1518 1517 1516 1515 1514 1513 1511 1510 1508 1506 1505 1503 1502 1501 1501 1501
1509 1513 1514 1510 1505 1506 1508 1506 1500 1497 1498 1498 1498 1499 1500 1501 1503 1506 1508 1510 1513 1515 1516 1518 1519 1520 1520 1520 1520 1520 1519 1519 1519 1518 1517 1516 1515 1513 1512 1511 1509 1508 1506 1504 1503 1502 1501 1500 1500
1509 1514 1514 1510 1505 1506 1508 1506 1499 1496 1495 1495 1495 1496 1497 1498 1501 1503 1505 1508 1510 1512 1514 1516 1517 1518 1519 1519 1519 1519 1519 1518 1518 1517 1517 1516 1514 1513 1512 1511 1509 1507 1506 1504 1503 1502 1501 1500 1500
1511 1514 1513 1513 1509 1507 1509 1510 1502 1496 1495 1494 1494 1494 1495 1497 1498 1500 1502 1504 1507 1509 1512 1514 1516 1517 1518 1519 1518 1518 1517 1517 1517 1517 1516 1515 1514 1513 1512 1510 1509 1507 1506 1504 1503 1502 1501 1500 1500
1514 1507 1509 1511 1517 1523 1518 1529 1511 1504 1498 1494 1493 1493 1494 1495 1496 1498 1499 1501 1504 1507 1510 1512 1514 1516 1517 1517 1517 1517 1517 1516 1516 1516 1515 1515 1514 1513 1512 1510 1509 1507 1506 1505 1504 1502 1501 1501 1500
1509 1506 1508 1512 1517 1525 1523 1529 1521 1507 1502 1497 1494 1493 1493 1494 1495 1496 1497 1499 1502 1505 1507 1510 1512 1514 1515 1516 1516 1516 1516 1515 1515 1515 1514 1514 1513 1512 1511 1510 1509 1507 1506 1505 1504 1503 1502 1501 1500
1505 1510 1514 1520 1526 1536 1528 1531 1527 1514 1506 1501 1495 1494 1493 1493 1494 1495 1496 1498 1500 1503 1505 1508 1510 1512 1513 1514 1515 1515 1515 1514 1514 1514 1513 1513 1513 1512 1511 1510 1509 1507 1506 1505 1504 1503 1502 1501 1500
1508 1521 1537 1539 1544 1541 1529 1529 1527 1508 1503 1501 1497 1495 1494 1493 1493 1494 1495 1496 1498 1500 1503 1505 1507 1509 1511 1512 1513 1513 1513 1513 1513 1513 1512 1512 1512 1511 1511 1510 1509 1507 1506 1505 1504 1503 1502 1501 1500
1511 1518 1537 1545 1547 1543 1532 1531 1519 1504 1501 1498 1497 1495 1494 1494 1493 1493 1494 1495 1496 1498 1500 1503 1505 1507 1509 1510 1511 1512 1512 1512 1512 1512 1511 1511 1511 1510 1510 1509 1508 1507 1506 1505 1504 1503 1502 1502 1501
1512 1519 1521 1536 1539 1545 1538 1528 1513 1502 1500 1498 1497 1496 1495 1495 1494 1493 1494 1494 1496 1497 1498 1500 1502 1504 1506 1508 1509 1509 1510 1510 1510 1510 1510 1510 1510 1509 1509 1508 1508 1507 1506 1505 1504 1503 1502 1501 1501
1506 1516 1527 1536 1547 1550 1542 1535 1528 1511 1506 1503 1500 1498 1496 1495 1494 1493 1493 1493 1494 1495 1497 1499 1500 1502 1504 1505 1506 1507 1507 1508 1508 1509 1508 1508 1508 1508 1508 1507 1507 1506 1505 1505 1504 1503 1502 1501 1501
1511 1517 1527 1537 1539 1551 1549 1540 1516 1512 1508 1506 1502 1500 1497 1495 1494 1492 1492 1492 1493 1494 1495 1496 1498 1500 1501 1503 1504 1504 1505 1506 1506 1506 1506 1506 1506 1507 1506 1506 1506 1505 1504 1504 1503 1503 1502 1501 1500
1503 1510 1521 1532 1538 1543 1547 1540 1510 1509 1507 1505 1503 1500 1498 1496 1494 1492 1491 1491 1491 1492 1493 1494 1495 1497 1498 1500 1501 1502 1503 1503 1503 1504 1504 1504 1504 1505 1505 1505 1504 1504 1503 1503 1502 1502 1501 1501 1500